STARLINK-32814, 62871

Orbit data source: Space-Track

STARLINK-32814, 62871 is a payload satellite owned by SpaceX/Seattle (US) in LEO that was launched on Sat, 01 Feb 2025 UTC via an FALCON 9 launch vehicle from the Air Force Western Test Range (AFWTR). Payload-class satellites include a variety of spacecraft equipped with specific instruments for various scientific and technological missions. These include communications satellites like Starlink; space stations such as the ISS; scientific satellites like the Hubble; Earth observation satellites from companies like Planet Labs, Umbra, and HawkEye 360; GPS; miniature CubeSats for education and research; and military/defense satellites.

Loading next visibility...
Identifier
62871, 2025-022T
Orbit
LEO
Country
Flag of USUS
Related business
Manufacturer
SpaceX/Seattle
Mission
Operational Commercial Communications
Bus & Motor
STARLINK V2M, Unknown motor
Mass
730 kg wet, ~700 kg dry
Launch date (UTC)
2025-02-01 (1 year ago)
Launch vehicle
FALCON 9
Launch site
Air Force Western Test Range (AFWTR)
Object type
Payload
Rocket body
Debris
Shape & HBR
Box + 2 Pan, 17.7 m
Radar Cross Section
33.884 m², Large (>1 m²)

Expand to show TLE details & history
Last TLE update: 15 hours ago

TLE from 15 hours ago
0 STARLINK-32814
1 62871U 25022T   26126.52245159  .00018738  00000-0  64344-3 0  9996
2 62871  53.1607 221.0572 0002673  83.8249 276.3056 15.30185419 70754
Epoch: 2026-05-06T12:32Z
TLE epoch observation values (Epoch: 2026-05-06T12:32:19.817Z)
Latitude
-0.00003°
Longitude
168.59287°
Altitude
475.958 km
Speed
7.629 km/s
True Right ascension
14h 44m 13s
True Declination
0° 00' 00"
Sunlit
Object was in full shadow at epoch
Visualization orbit readout
Latitude
Unknown
Longitude
Unknown
Altitude
Unknown
Speed
Unknown
Apparent Right ascension
Unknown
Apparent Declination
Unknown
Sunlit
N/A
Visualization observer readout
Local Sidereal Time
11:50:47
Azimuth
Unknown
Elevation
Unknown
Doppler factor
Unknown
Orbital elements
Apogee altitude
477.347 km
Perigee altitude
473.683 km
Semi-major axis
6,853.652 km
Eccentricity
0.00027
Inclination
53.1607°
RAAN
221.0572°
Arg. of periapsis
83.8249°
True anomaly
276.27515°
Mean anomaly
276.3056°
Eccentric anomaly
276.29038°
Mean motion
3.82525 °/min
Orbital period
94.11 mins
BSTAR
0.00064344
Loading maneuver chart data...
Computing Atmospheric mass density...
Loading historical data...
Loading historical data...
Loading historical data...
Loading historical data...
Loading historical data...
Loading historical data...
Loading historical data...

Documentation

Showing up to 5 results
|